This demonstration page uses our WeatherBlox Daily Observations layout. Learn more.

Left ArrowRight Arrow

Hourly Observations for December 18, 2015

Temp ( °F °C ) Dew Point ( °F °C ) Humidity (%) Winds ( mph kmh ) Pressure ( in mb ) Visibility ( mi km ) Precip ( " mm )
12:51 am 00:51 Clear 33 0.6 23 -5 66 66 SSE 10 17 30.21 1023 10 16 N/A
1:51 am 01:51 Clear 33 0.6 23 -5 66 66 SE 8 13 30.21 1023 10 16 N/A
2:51 am 02:51 Clear 37 2.8 22 -5.6 54 54 ESE 12 19 30.20 1023 10 16 N/A
3:51 am 03:51 Clear 31 -0.6 22 -5.6 69 69 SE 6 9 30.21 1023 10 16 N/A
4:51 am 04:51 Clear 30 -1.1 22 -5.6 72 72 SSE 9 15 30.21 1023 10 16 N/A
5:51 am 05:51 Clear 30 -1.1 22 -5.6 72 72 SE 6 9 30.24 1024 10 16 N/A
6:51 am 06:51 Clear 33 0.6 21 -6.1 61 61 SE 12 19 30.26 1025 10 16 N/A
7:51 am 07:51 Sunny 33 0.6 22 -5.6 64 64 SE 10 17 30.28 1025 10 16 N/A
8:51 am 08:51 Sunny 37 2.8 23 -5 57 57 SSE 14 22 30.29 1026 10 16 N/A
9:51 am 09:51 Sunny 44 6.7 21 -6.1 40 40 SE 14 22 30.28 1026 10 16 N/A
10:51 am 10:51 Sunny 49 9.4 22 -5.6 35 35 SE 12 19 30.26 1025 10 16 N/A
11:51 am 11:51 Sunny 52 11.1 22 -5.6 31 31 SE 8 13 30.22 1024 10 16 N/A
12:51 pm 12:51 Sunny 54 12.2 21 -6.1 28 28 SSW 5 7 30.18 1022 10 16 N/A
1:51 pm 13:51 Sunny 56 13.3 19 -7.2 24 24 VRB 5 7 30.14 1021 10 16 N/A
2:51 pm 14:51 Sunny 59 15 19 -7.2 21 21 S 9 15 30.11 1020 10 16 N/A
3:51 pm 15:51 Sunny 59 15 21 -6.1 23 23 SSE 7 11 30.10 1019 10 16 N/A
4:51 pm 16:51 Sunny 57 13.9 21 -6.1 25 25 SSE 6 9 30.10 1019 10 16 N/A
5:51 pm 17:51 Clear 49 9.4 22 -5.6 35 35 E 7 11 30.12 1020 10 16 N/A
6:51 pm 18:51 Clear 45 7.2 22 -5.6 40 40 E 8 13 30.14 1021 10 16 N/A
7:51 pm 19:51 Clear 45 7.2 22 -5.6 40 40 E 7 11 30.15 1021 10 16 N/A
8:51 pm 20:51 Clear 44 6.7 23 -5 43 43 ESE 8 13 30.15 1021 10 16 N/A
9:51 pm 21:51 Clear 46 7.8 23 -5 40 40 SE 12 19 30.14 1021 10 16 N/A
10:51 pm 22:51 Clear 46 7.8 21 -6.1 37 37 SE 13 20 30.13 1020 10 16 N/A
11:51 pm 23:51 Clear 45 7.2 21 -6.1 39 39 SE 13 20 30.11 1020 10 16 N/A

Powered by AerisWeather